Sioux City, IA

4:41 AM CST on December 08, 2019 (GMT -0600)
Sioux Gateway

Weather History for KSUX - October, 2019

Change the Weather History Date:

Saturday, October 5, 2019

  Actual Average Record
Temperature  
Mean Temperature 52 °F 55 °F  
Max Temperature 63 °F 68 °F 93 °F (1963)
Min Temperature 41 °F 42 °F 23 °F (2012)
Degree Days  
Heating Degree Days 13 11  
Month to date heating degree days 75 49  
Since 1 July heating degree days 111 196  
Cooling Degree Days 0 1  
Month to date cooling degree days 0 5  
Year to date cooling degree days 910 866  
Growing Degree Days 2 (Base 50)    
Moisture  
Dew Point 49 °F    
Average Humidity 83    
Maximum Humidity 100    
Minimum Humidity 46    
Precipitation  
Precipitation 0.22 in 0.09 in 2.03 in (1911)
Month to date precipitation 2.00 0.46  
Year to date precipitation 30.11 23.96  
Snow  
Snow 0.00 in 0.00 in T in (1991)
Month to date snowfall 0.0 0.0  
Since 1 July snowfall 0.0 0.0  
Since 1 September snowfall 0.0 0.0  
Snow Depth 0.00 in    
Sea Level Pressure  
Sea Level Pressure 29.90 in    
Wind  
Wind Speed 12 mph ()    
Max Wind Speed 26 mph    
Max Gust Speed 39 mph    
Visibility 9.7 miles    
Events Rain , Thunderstorm    
T = Trace of Precipitation, MM = Missing Value Source: Averaged Metar Reports

Daily Weather History Graph

Daily Weather History Graph

Search for Another Location

Airport or City:

Astronomy

Oct. 05, 2019 Rise Set
Actual Time 7:26 AM CDT 7:00 PM CDT
Civil Twilight 6:58 AM CDT 7:28 PM CDT
Nautical Twilight 6:26 AM CDT 8:00 PM CDT
Astronomical Twilight 5:53 AM CDT 8:33 PM CDT
Moon 3:00 PM CDT (10/5) No Moon Set
Length of Visible Light 12h 29m
Length of Day
11h 33m
Waxing Crescent, 50% of the Moon is Illuminated
Oct 5
Waxing Crescent
Oct 13
Full
Oct 21
Last Quarter
Oct 27
New
Nov 4
First Quarter

Hourly Weather History & Observations

Time (CDT) Temp. Windchill Dew Point Humidity Pressure Visibility Wind Dir Wind Speed Gust Speed Precip Events Conditions
12:03 AM 51.1 °F - 46.0 °F 83% 30.02 in 8.0 mi SSE 11.5 mph - 0.01 in Rain Rain
12:49 AM 50.0 °F - 48.2 °F 94% 29.99 in 10.0 mi SE 12.7 mph 21.9 mph 0.10 in Rain , Thunderstorm Light Rain
12:52 AM 50.0 °F - 48.0 °F 93% 30.00 in 10.0 mi SE 12.7 mph 21.9 mph 0.10 in Thunderstorm Overcast
1:06 AM 50.0 °F - 48.9 °F 96% 29.98 in 10.0 mi SSE 11.5 mph - 0.00 in Rain Light Rain
1:19 AM 50.0 °F - 48.9 °F 96% 29.98 in 10.0 mi SSE 13.8 mph 23.0 mph 0.00 in   Overcast
1:42 AM 51.1 °F - 48.9 °F 92% 29.97 in 10.0 mi SSE 13.8 mph - 0.00 in   Overcast
1:52 AM 51.1 °F - 48.9 °F 92% 29.98 in 10.0 mi SSE 15.0 mph - 0.00 in   Overcast
2:04 AM 51.1 °F - 48.9 °F 92% 29.97 in 10.0 mi SSE 11.5 mph 23.0 mph N/A   Overcast
2:36 AM 51.1 °F - 48.9 °F 92% 29.96 in 10.0 mi SSE 10.4 mph - N/A Thunderstorm Overcast
2:52 AM 51.1 °F - 48.9 °F 92% 29.94 in 10.0 mi SE 15.0 mph 23.0 mph N/A   Overcast
3:40 AM 52.0 °F - 50.0 °F 93% 29.89 in 10.0 mi SSE 15.0 mph - 0.00 in Rain Light Rain
3:48 AM 51.8 °F - 50.0 °F 94% 29.89 in 10.0 mi SSE 17.3 mph 24.2 mph 0.00 in Thunderstorm Overcast
3:52 AM 52.0 °F - 50.0 °F 93% 29.88 in 10.0 mi SSE 15.0 mph 24.2 mph 0.00 in Thunderstorm Overcast
3:56 AM 52.0 °F - 50.0 °F 93% 29.87 in 10.0 mi SSE 18.4 mph 25.3 mph N/A Thunderstorm Thunderstorm
4:31 AM 52.0 °F - 51.1 °F 97% 29.85 in 10.0 mi SSE 13.8 mph 25.3 mph 0.05 in Rain , Thunderstorm Light Rain
4:52 AM 52.0 °F - 51.1 °F 97% 29.84 in 8.0 mi South 13.8 mph - 0.06 in Rain , Thunderstorm Light Rain
5:10 AM 52.0 °F - 51.1 °F 97% 29.84 in 6.0 mi South 8.1 mph - 0.04 in Rain Light Rain
5:52 AM 53.1 °F - 52.0 °F 96% 29.83 in 6.0 mi SSE 4.6 mph - 0.06 in Rain Light Rain
6:35 AM 53.1 °F - 52.0 °F 96% 29.82 in 10.0 mi SSE 9.2 mph - 0.00 in   Overcast
6:38 AM 53.1 °F - 52.0 °F 96% 29.82 in 10.0 mi SSE 9.2 mph - 0.00 in   Overcast
6:52 AM 53.1 °F - 53.1 °F 100% 29.83 in 10.0 mi SSE 8.1 mph - 0.00 in   Overcast
7:20 AM 53.1 °F - 52.0 °F 96% 29.82 in 10.0 mi SSE 10.4 mph - 0.00 in Rain Light Rain
7:52 AM 54.0 °F - 54.0 °F 100% 29.81 in 8.0 mi South 8.1 mph - 0.00 in   Overcast
8:52 AM 55.0 °F - 55.0 °F 100% 29.81 in 10.0 mi South 5.8 mph - N/A   Overcast
9:48 AM 60.8 °F - 57.2 °F 88% 29.80 in 10.0 mi SW 9.2 mph - N/A   Mostly Cloudy
9:52 AM 60.1 °F - 57.0 °F 90% 29.81 in 10.0 mi SW 9.2 mph - N/A   Mostly Cloudy
9:54 AM 60.1 °F - 57.0 °F 90% 29.81 in 10.0 mi SW 8.1 mph - N/A   Scattered Clouds
10:52 AM 60.1 °F - 51.1 °F 72% 29.84 in 10.0 mi WNW 24.2 mph 39.1 mph N/A   Overcast
11:44 AM 61.0 °F - 52.0 °F 72% 29.85 in 10.0 mi NW 20.7 mph 29.9 mph N/A   Scattered Clouds
11:52 AM 60.1 °F - 51.1 °F 72% 29.86 in 10.0 mi NW 19.6 mph 29.9 mph N/A   Scattered Clouds
12:52 PM 57.9 °F - 48.0 °F 70% 29.88 in 10.0 mi WNW 23.0 mph 34.5 mph N/A   Overcast
1:52 PM 61.0 °F - 46.0 °F 58% 29.88 in 10.0 mi WNW 25.3 mph 39.1 mph N/A   Scattered Clouds
2:52 PM 61.0 °F - 45.0 °F 56% 29.88 in 10.0 mi NW 18.4 mph 38.0 mph N/A   Scattered Clouds
3:52 PM 63.0 °F - 45.0 °F 52% 29.88 in 10.0 mi NW 19.6 mph 35.7 mph N/A   Partly Cloudy
4:52 PM 63.0 °F - 45.0 °F 52% 29.89 in 10.0 mi NW 20.7 mph 29.9 mph N/A   Partly Cloudy
5:52 PM 62.1 °F - 41.0 °F 46% 29.92 in 10.0 mi WNW 17.3 mph 29.9 mph N/A   Clear
6:52 PM 59.0 °F - 39.9 °F 49% 29.93 in 10.0 mi WNW 10.4 mph - N/A   Clear
7:52 PM 51.1 °F - 41.0 °F 68% 29.96 in 10.0 mi WSW 5.8 mph - N/A   Clear
8:52 PM 51.1 °F - 39.9 °F 66% 29.98 in 10.0 mi WSW 9.2 mph - N/A   Clear
9:52 PM 48.9 °F - 39.0 °F 69% 29.99 in 10.0 mi Calm Calm - N/A   Clear
10:52 PM 45.0 °F 41.8 °F 39.0 °F 80% 30.02 in 10.0 mi WSW 5.8 mph - N/A   Clear
11:52 PM 45.0 °F - 39.9 °F 82% 30.03 in 10.0 mi Calm Calm - N/A   Clear